Other Surface Observations
Issued by NWS Upton, NY

Home | Current Version | Previous Version | Text Only | Print | Product List | Glossary On
Versions: 1 2 3 4 5 6 7 8 9 10 11 12 13 14 15 16 17 18 19 20 21 22 23 24 25 26 27 28 29 30 31 32 33 34 35 36 37 38 39 40 41 42 43 44 45 46 47 48 49 50
000
SXUS51 KOKX 211357
OSOOKX
New York City Metropolitan Area Weather Roundup
National Weather Service New York NY
1000 AM EDT SAT APR 21 2018

CITY           SKY/WX    TMP DP  RH WIND       PRES   REMARKS
Central Park   FAIR      49  25  39 VRB7      30.43S
LaGuardia Arpt FAIR      49  27  42 NW12      30.41S
Kennedy Intl   FAIR      50  27  40 NW10      30.42S
Newark Liberty PTSUNNY   51  25  36 NW10      30.42S
Teterboro Arpt FAIR      49  26  41 NW8G18    30.40F
Bronx Bot Gard   N/A     46  25  42 W18       30.42R
Bronx Lehman C   N/A     46  27  46 W6          N/A
Queens College   N/A     46  27  46 NW7         N/A
Breezy Point     N/A     46 N/A N/A NW7         N/A
Brooklyn Coll    N/A     46  27  46 W13         N/A
Staten Island    N/A     48  27  43 NW5         N/A

>>>>>>>>>>>>>>>>>>>>>>>>>>>>>>>>> KEY <<<<<<<<<<<<<<<<<<<<<<<<<<<<<<<
> SKY/WX - Sky Condition/Present    : R : WCI - Wind Chill Index    <
>          Weather                  : E : VSB - Visibility in Miles <
> TMP    - Temperature in Deg F     : M : HX  - Heat Index          <
> DP     - Dew Point Temperature    : A : TC  - Temperature in      <
> RH     - Relative Humidity        : R :       Celsius             <
> WIND   - Direction/Speed (mph)    : K : VRB - Variable Wind Dir   <
> PRES   - Pressure (in Hg)         : S :                           <
>>>>>>>>>>>>>>>>>>>>>>>>>>>>>>>>> KEY <<<<<<<<<<<<<<<<<<<<<<<<<<<<<<<



USA.gov is the U.S. government's official web portal to all federal, state and local government web resources and services.